Regional Weather Roundup
Issued by NWS Boston, MA

Home | Current Version | Previous Version | Text Only | Print | Product List | Glossary On
Versions: 1 2 3 4 5 6 7 8 9 10 11 12 13 14 15 16 17 18 19 20 21 22 23 24 25 26 27 28 29 30 31 32 33 34 35 36 37 38 39 40 41 42 43 44 45 46 47 48 49 50
434
ASUS41 KBOX 210610
RWRBOX

REGIONAL WEATHER ROUNDUP
NATIONAL WEATHER SERVICE TAUNTON MA
100 AM EST SAT JAN 21 2017

NOTE:  "FAIR" INDICATES FEW OR NO CLOUDS BELOW 12,000 FEET WITH NO
SIGNIFICANT WEATHER AND/OR OBSTRUCTIONS TO VISIBILITY.

MAZALL-210700-
EASTERN MASSACHUSETTS

CITY           SKY/WX    TMP DP  RH WIND       PRES   REMARKS
BOSTON         CLOUDY    37  35  92 SW9       29.92S FOG     WCI  30
6HR MIN TEMP:  38; 6HR MAX TEMP:  39;

BEVERLY        CLOUDY    39  32  76 S3        29.90F
LAWRENCE       CLOUDY    36  32  85 SW3       29.92F
BEDFORD        CLOUDY    36  32  85 SW3       29.90F FOG
BLUE HILL        N/A     34  33  96 SW9       29.88F WCI  27
NORWOOD        CLOUDY    38  36  92 S5        29.92F FOG
MARSHFIELD     CLOUDY    39  32  75 SW5       29.92F
PLYMOUTH       CLOUDY    37  33  85 CALM      29.92F
TAUNTON        CLOUDY    38  33  82 CALM      29.91F
NEW BEDFORD    CLOUDY    39  34  82 CALM      29.91F
$$

MAZALL-210700-
CAPE COD AND THE ISLANDS

CITY           SKY/WX    TMP DP  RH WIND       PRES   REMARKS
FALMOUTH       CLOUDY    39  34  81 MISG      29.93S
HYANNIS        CLOUDY    40  33  76 S5        29.91F
CHATHAM        CLOUDY    40  34  79 CALM      29.94S
PROVINCETOWN   CLOUDY    39  34  82 S3        29.93F
NANTUCKET      CLOUDY    41  33  73 S6        29.93F
MARTHAS VNYRD  CLOUDY    41  35  79 S7        29.92F
$$

MAZALL-210700-
CENTRAL AND WESTERN MASSACHUSETTS

CITY           SKY/WX    TMP DP  RH WIND       PRES   REMARKS
WORCESTER      CLOUDY    33  31  92 SW6       29.87F FOG     WCI  28
6HR MIN TEMP:  32; 6HR MAX TEMP:  34;

FITCHBURG      CLOUDY    37  32  82 S3        29.90F
ORANGE         CLOUDY    33  32  96 CALM      29.89F FOG
SPRINGFIELD    CLOUDY    36  35  94 CALM      29.88F
WESTFIELD      CLOUDY    36  35  96 SE3       29.89F
NORTH ADAMS    CLOUDY    36  33  89 E5        29.86F
PITTSFIELD     CLOUDY    35  32  88 S3        29.83F
$$

RIZALL-210700-
RHODE ISLAND

CITY           SKY/WX    TMP DP  RH WIND       PRES   REMARKS
PROVIDENCE     CLOUDY    40  33  76 CALM      29.92F
6HR MIN TEMP:  39; 6HR MAX TEMP:  40;

NEWPORT        CLOUDY    40  38  93 SE6       29.91F
SMITHFIELD     CLOUDY    37  33  85 CALM      29.90F
WESTERLY       CLOUDY    43  38  82 SE7       29.91F
$$

CTZALL-210700-
CONNECTICUT

CITY           SKY/WX    TMP DP  RH WIND       PRES   REMARKS
BRADLEY INTL   CLOUDY    37  36  96 S3        29.90F FOG
6HR MIN TEMP:  37; 6HR MAX TEMP:  40; 6HR PCP:  0.01;

HARTFORD       CLOUDY    37  37 100 CALM      29.90F FOG
BRIDGEPORT     CLOUDY    41  38  89 CALM      29.92R
DANBURY        CLOUDY    37  36  96 SW3       29.91S FOG
GROTON         CLOUDY    42  40  92 E3        29.90F
NEW HAVEN      CLOUDY    40  38  93 CALM      29.91S
CHESTER        CLOUDY    37  37 100 CALM      29.89F FOG
MERIDEN        CLOUDY    39  36  89 CALM      29.90F
WILLIMANTIC    CLOUDY    38  36  92 NE3       29.91F FOG
OXFORD         CLOUDY    36  34  93 CALM      29.89S
$$

MEZ002-015-021-024-NHZ003-005-008-011-012-014-VTZ005-008-210700-
NORTHERN NEW ENGLAND

CITY           SKY/WX    TMP DP  RH WIND       PRES   REMARKS
PORTLAND ME    CLOUDY    36  29  75 SW5       29.89F
6HR MIN TEMP:  34; 6HR MAX TEMP:  37;

BANGOR ME      CLOUDY    32  29  88 CALM      29.89F
CONCORD NH     CLOUDY    33  30  88 S5        29.89F WCI  29
MANCHESTER NH  NOT AVBL
NASHUA NH      NOT AVBL
PORTSMOUTH NH  CLOUDY    34  31  89 CALM      29.89F
JAFFREY NH     NOT AVBL
KEENE NH       NOT AVBL
BURLINGTON VT  CLOUDY    38  32  79 S8        29.82F
MT. WASHINGTON MOCLDY    34  21  60 W21         N/A  WCI  22
$$

NYZ052-076-210700-
EASTERN NEW YORK

CITY           SKY/WX    TMP DP  RH WIND       PRES   REMARKS
ALBANY         CLOUDY    39  34  82 S7        29.86F
6HR MIN TEMP:  38; 6HR MAX TEMP:  40; 6HR PCP: TRACE;

NEW YORK CITY  CLOUDY    44  40  85 SW7       29.92S
6HR MIN TEMP:  41; 6HR MAX TEMP:  44; 6HR PCP:  0.01;

$$

ANZALL-210700-
MARINE OBSERVATIONS

STATION/POSITION TIME  TEMP    WIND        PRES    VSBY  WAVE
                       AIR SEA DIR/SP/G                  HT/PER
                 (UTC) (F)     (DEG/KT/KT) (MB)    (MI)  (FT/S)
BOSTON BUOY      0550   40 44  190/ 10/ 12 1012.1F         3/11
BUZZARDS BAY     0500   41     140/  7/  8 1013.8F
NANTUCKET SOUND  0450   42 43  170/  6/  8 1013.8          1/ 6
MASS BAY-STELLWA 0504   41 44  200/ 12/ 14 1012.9F  1 7/8  3/10
ISLE OF SHOALS   0500   40     210/ 10/ 11 1012.7F
S OF BLOCK IS    0525      47                N/A           3/11
$$

......................KEY.........................
  SKY/WX - SKY CONDITION/PRESENT WEATHER
  TMP    - TEMPERATURE IN FAHRENHEIT
  DWPT   - DEWPOINT IN FAHRENHEIT
  RH     - RELATIVE HUMIDITY IN PERCENT
  WIND   - DIRECTION AND SPEED IN MPH
  PRES   - MEAN SEA LEVEL PRESSURE IN INCHES OF HG
  WCI    - WIND CHILL INDEX
  VSB    - VISIBILITY IN MILES
  HX     - HEAT INDEX
  TC     - TEMPERATURE IN CELSIUS
  VRB    - VARIABLE WIND DIRECTION
  N/A    - NOT AVAILABLE




USA.gov is the U.S. government's official web portal to all federal, state and local government web resources and services.